TimeEET,TemperatureF,Dew PointF,Humidity,Sea Level PressureIn,VisibilityMPH,Wind Direction,Wind SpeedMPH,Gust SpeedMPH,PrecipitationIn,Events,Conditions,WindDirDegrees,DateUTC
4:50 AM,55.4,48.2,77,30.15,6.2,SE,11.5,-,N/A,,Mostly Cloudy,130,2013-03-07 02:50:00
5:20 AM,55.4,48.2,77,30.15,6.2,SE,11.5,-,N/A,,Mostly Cloudy,130,2013-03-07 03:20:00
5:50 AM,55.4,48.2,77,30.15,6.2,SE,15.0,-,N/A,,Mostly Cloudy,130,2013-03-07 03:50:00
6:20 AM,55.4,48.2,77,30.15,6.2,SE,13.8,-,N/A,,Mostly Cloudy,130,2013-03-07 04:20:00
6:50 AM,55.4,50.0,82,30.15,6.2,SE,15.0,-,N/A,,Mostly Cloudy,130,2013-03-07 04:50:00
7:20 AM,55.4,50.0,82,30.15,6.2,SE,15.0,-,N/A,,Mostly Cloudy,130,2013-03-07 05:20:00
7:50 AM,57.2,46.4,67,30.15,6.2,SE,13.8,-,N/A,,Overcast,130,2013-03-07 05:50:00
8:00 AM,58,46,55,30.15,6,SE,13.8,,,,Overcast,130,2013-03-07 06:00:00
8:20 AM,57.2,46.4,67,30.15,6.2,SE,12.7,-,N/A,,Overcast,140,2013-03-07 06:20:00
8:50 AM,57.2,46.4,67,30.15,6.2,SE,13.8,-,N/A,,Overcast,130,2013-03-07 06:50:00
9:20 AM,59.0,46.4,63,30.15,6.2,SSE,12.7,-,N/A,,Mostly Cloudy,150,2013-03-07 07:20:00
9:50 AM,59.0,46.4,63,30.12,6.2,SSE,11.5,-,N/A,,Mostly Cloudy,150,2013-03-07 07:50:00
10:20 AM,59.0,46.4,63,30.12,6.2,SSE,11.5,-,N/A,,Mostly Cloudy,150,2013-03-07 08:20:00
10:50 AM,60.8,46.4,59,30.12,6.2,South,9.2,-,N/A,,Scattered Clouds,180,2013-03-07 08:50:00
11:20 AM,60.8,46.4,59,30.12,6.2,South,9.2,-,N/A,,Mostly Cloudy,180,2013-03-07 09:20:00
11:50 AM,60.8,46.4,59,30.12,6.2,South,9.2,-,N/A,,Mostly Cloudy,180,2013-03-07 09:50:00
12:20 PM,60.8,46.4,59,30.12,6.2,South,9.2,-,N/A,,Mostly Cloudy,180,2013-03-07 10:20:00
12:50 PM,60.8,46.4,59,30.12,6.2,South,17.3,-,N/A,,Mostly Cloudy,170,2013-03-07 10:50:00
1:20 PM,62.6,46.4,55,30.12,6.2,South,17.3,-,N/A,,Mostly Cloudy,170,2013-03-07 11:20:00
1:50 PM,62.6,48.2,59,30.09,6.2,SSE,16.1,-,N/A,,Mostly Cloudy,160,2013-03-07 11:50:00
2:00 PM,63,47,46,30.10,6,SSE,16.1,,,,Partly Cloudy,160,2013-03-07 12:00:00
2:20 PM,62.6,48.2,59,30.09,6.2,SSE,16.1,-,N/A,,Mostly Cloudy,160,2013-03-07 12:20:00
2:50 PM,62.6,48.2,59,30.06,6.2,SSE,16.1,-,N/A,,Mostly Cloudy,150,2013-03-07 12:50:00
3:20 PM,62.6,48.2,59,30.06,6.2,SSE,16.1,-,N/A,,Mostly Cloudy,150,2013-03-07 13:20:00
3:50 PM,62.6,46.4,55,30.04,6.2,SE,16.1,-,N/A,,Mostly Cloudy,140,2013-03-07 13:50:00
4:20 PM,62.6,46.4,55,30.04,6.2,SE,16.1,-,N/A,,Mostly Cloudy,140,2013-03-07 14:20:00
4:50 PM,59.0,46.4,63,30.04,6.2,SSE,16.1,-,N/A,,Mostly Cloudy,150,2013-03-07 14:50:00
5:20 PM,57.2,46.4,67,30.04,6.2,SSE,16.1,-,N/A,,Mostly Cloudy,150,2013-03-07 15:20:00
5:50 PM,57.2,41.0,55,30.04,6.2,SSE,16.1,-,N/A,,Mostly Cloudy,150,2013-03-07 15:50:00
6:20 PM,57.2,41.0,55,30.04,6.2,SSE,16.1,-,N/A,,Mostly Cloudy,150,2013-03-07 16:20:00
6:50 PM,55.4,42.8,63,30.04,6.2,SSE,17.3,-,N/A,,Mostly Cloudy,150,2013-03-07 16:50:00
7:20 PM,55.4,42.8,63,30.04,6.2,SSE,17.3,-,N/A,,Mostly Cloudy,150,2013-03-07 17:20:00
7:50 PM,55.4,42.8,63,30.04,6.2,SSE,13.8,-,N/A,,Mostly Cloudy,160,2013-03-07 17:50:00
8:00 PM,55,42,51,30.04,6,SSE,13.8,,,,Partly Cloudy,160,2013-03-07 18:00:00